Total_Precipitation_Accumulation
0.20 0.21 0.29 0.49 0.59 0.56 0.52 0.58 0.81 0.82 0.72 0.65 0.60 0.65 0.68 0.72 0.68 0.60 0.57 0.58 0.63 0.66 0.65 0.63 0.60 0.63 0.66 0.73 0.84 0.99 1.12 1.10 0.95 0.77 0.64 0.58 0.54 0.47 0.46 0.47 0.48 0.55 0.62 0.65
0.09 0.10 0.19 0.33 0.44 0.45 0.41 0.41 0.49 0.56 0.54 0.44 0.41 0.46 0.47 0.48 0.44 0.40 0.37 0.35 0.34 0.34 0.35 0.35 0.32 0.29 0.29 0.37 0.52 0.77 1.03 1.01 0.79 0.61 0.49 0.45 0.45 0.45 0.41 0.40 0.45 0.50 0.49 0.53
0.10 0.08 0.15 0.36 0.40 0.37 0.37 0.29 0.29 0.35 0.35 0.30 0.32 0.37 0.38 0.40 0.41 0.31 0.24 0.23 0.23 0.22 0.21 0.21 0.20 0.19 0.20 0.28 0.40 0.57 0.68 0.65 0.56 0.45 0.43 0.46 0.48 0.43 0.42 0.41 0.42 0.44 0.43 0.45
0.11 0.13 0.37 0.63 0.55 0.46 0.42 0.24 0.16 0.17 0.19 0.21 0.30 0.32 0.33 0.31 0.31 0.30 0.20 0.14 0.13 0.13 0.13 0.15 0.16 0.20 0.24 0.28 0.35 0.40 0.43 0.43 0.39 0.37 0.38 0.41 0.42 0.41 0.47 0.51 0.49 0.48 0.49 0.49
0.18 0.25 0.47 0.58 0.52 0.51 0.50 0.34 0.15 0.12 0.12 0.11 0.11 0.13 0.14 0.15 0.13 0.12 0.08 0.05 0.05 0.04 0.04 0.05 0.06 0.07 0.09 0.11 0.13 0.15 0.14 0.15 0.15 0.15 0.17 0.19 0.21 0.27 0.38 0.44 0.47 0.50 0.54 0.54
0.23 0.32 0.46 0.39 0.24 0.26 0.39 0.45 0.13 0.07 0.06 0.04 0.02 0.05 0.07 0.08 0.09 0.05 0.02 0.02 0.02 0.01 0.02 0.02 0.01 0.01 0.02 0.02 0.03 0.03 0.03 0.03 0.04 0.04 0.05 0.06 0.09 0.13 0.19 0.22 0.27 0.37 0.39 0.42
0.25 0.44 0.64 0.47 0.26 0.24 0.41 0.41 0.09 0.04 0.02 0.01 0.01 0.01 0.03 0.06 0.07 0.05 0.03 0.03 0.02 0.02 0.02 0.02 0.02 0.01 0.02 0.03 0.03 0.02 0.03 0.02 0.02 0.02 0.02 0.03 0.04 0.06 0.10 0.12 0.17 0.21 0.26 0.31
0.32 0.61 0.83 0.65 0.42 0.36 0.27 0.11 0.04 0.01 0.00 0.00 0.00 0.01 0.01 0.03 0.04 0.03 0.03 0.02 0.02 0.01 0.01 0.02 0.02 0.02 0.02 0.02 0.02 0.02 0.03 0.02 0.02 0.02 0.03 0.03 0.03 0.05 0.07 0.08 0.10 0.13 0.15 0.20
0.24 0.47 0.53 0.47 0.36 0.25 0.18 0.07 0.01 0.00 0.00 0.00 0.01 0.00 0.01 0.02 0.02 0.02 0.02 0.01 0.01 0.01 0.01 0.01 0.01 0.01 0.01 0.02 0.02 0.02 0.02 0.02 0.02 0.03 0.03 0.04 0.05 0.06 0.06 0.07 0.09 0.11 0.14 0.22
0.05 0.11 0.16 0.19 0.19 0.12 0.09 0.05 0.01 0.00 0.00 0.00 0.00 0.00 0.01 0.01 0.03 0.02 0.01 0.01 0.01 0.01 0.01 0.01 0.01 0.01 0.01 0.02 0.02 0.02 0.02 0.02 0.02 0.03 0.03 0.04 0.06 0.07 0.08 0.08 0.09 0.14 0.19 0.25
0.06 0.04 0.04 0.08 0.10 0.09 0.05 0.02 0.01 0.00 0.00 0.00 0.00 0.00 0.00 0.01 0.03 0.02 0.02 0.01 0.01 0.01 0.01 0.01 0.01 0.01 0.01 0.01 0.01 0.01 0.01 0.01 0.01 0.02 0.03 0.04 0.04 0.04 0.06 0.06 0.09 0.16 0.23 0.29
0.06 0.03 0.03 0.05 0.05 0.04 0.03 0.01 0.00 0.00 0.00 0.00 0.00 0.00 0.00 0.01 0.02 0.03 0.03 0.01 0.01 0.01 0.01 0.01 0.01 0.01 0.00 0.00 0.01 0.01 0.01 0.01 0.01 0.02 0.03 0.04 0.04 0.04 0.05 0.07 0.11 0.14 0.14 0.17
0.03 0.02 0.02 0.02 0.02 0.02 0.01 0.01 0.00 0.00 0.00 0.00 0.00 0.00 0.00 0.00 0.01 0.03 0.04 0.02 0.01 0.01 0.02 0.01 0.01 0.00 0.00 0.00 0.00 0.00 0.01 0.01 0.02 0.02 0.02 0.03 0.05 0.08 0.10 0.08 0.06 0.06 0.06 0.08
0.01 0.02 0.02 0.01 0.01 0.01 0.01 0.01 0.00 0.00 0.00 0.00 0.00 0.00 0.00 0.00 0.01 0.02 0.02 0.02 0.02 0.02 0.02 0.02 0.01 0.01 0.01 0.01 0.01 0.00 0.00 0.01 0.02 0.05 0.07 0.08 0.09 0.13 0.18 0.22 0.20 0.12 0.07 0.06
0.01 0.02 0.01 0.01 0.01 0.01 0.01 0.01 0.01 0.00 0.00 0.00 0.00 0.00 0.00 0.00 0.00 0.01 0.02 0.02 0.02 0.02 0.02 0.02 0.01 0.02 0.01 0.01 0.00 0.01 0.01 0.02 0.04 0.10 0.12 0.10 0.12 0.17 0.19 0.15 0.13 0.12 0.11 0.09
0.02 0.01 0.01 0.01 0.01 0.01 0.00 0.01 0.01 0.01 0.01 0.00 0.00 0.00 0.01 0.00 0.00 0.00 0.01 0.02 0.02 0.02 0.02 0.02 0.02 0.02 0.02 0.01 0.01 0.01 0.01 0.02 0.04 0.09 0.12 0.11 0.10 0.12 0.12 0.10 0.09 0.10 0.11 0.13
0.03 0.02 0.01 0.01 0.01 0.01 0.00 0.00 0.00 0.01 0.01 0.01 0.01 0.01 0.01 0.01 0.01 0.01 0.01 0.01 0.02 0.02 0.02 0.02 0.03 0.03 0.02 0.02 0.02 0.02 0.02 0.03 0.04 0.07 0.09 0.08 0.08 0.09 0.10 0.11 0.11 0.12 0.12 0.13
0.02 0.02 0.02 0.02 0.01 0.01 0.01 0.01 0.01 0.01 0.00 0.01 0.01 0.01 0.02 0.02 0.02 0.03 0.02 0.02 0.03 0.04 0.03 0.04 0.04 0.04 0.04 0.04 0.04 0.04 0.05 0.07 0.08 0.10 0.10 0.08 0.09 0.12 0.15 0.15 0.14 0.15 0.15 0.16
0.02 0.02 0.02 0.02 0.01 0.01 0.01 0.01 0.01 0.01 0.01 0.01 0.01 0.02 0.02 0.03 0.03 0.02 0.03 0.03 0.03 0.03 0.03 0.03 0.04 0.03 0.03 0.04 0.05 0.06 0.06 0.08 0.09 0.12 0.12 0.11 0.12 0.15 0.17 0.17 0.16 0.17 0.19 0.19
0.03 0.03 0.03 0.02 0.01 0.01 0.01 0.01 0.01 0.01 0.01 0.01 0.02 0.02 0.03 0.03 0.03 0.04 0.04 0.04 0.04 0.04 0.02 0.03 0.04 0.04 0.04 0.05 0.07 0.08 0.09 0.11 0.13 0.15 0.15 0.15 0.16 0.18 0.18 0.18 0.19 0.21 0.21 0.22
0.04 0.03 0.02 0.02 0.01 0.01 0.01 0.01 0.01 0.01 0.01 0.01 0.02 0.03 0.03 0.03 0.04 0.05 0.06 0.06 0.05 0.04 0.04 0.04 0.03 0.03 0.04 0.07 0.09 0.11 0.13 0.13 0.14 0.16 0.16 0.16 0.17 0.19 0.21 0.21 0.21 0.23 0.23 0.23
0.06 0.04 0.03 0.03 0.02 0.02 0.02 0.01 0.01 0.02 0.02 0.02 0.03 0.03 0.03 0.03 0.03 0.04 0.05 0.05 0.05 0.06 0.06 0.05 0.05 0.05 0.07 0.09 0.08 0.09 0.11 0.14 0.16 0.18 0.19 0.19 0.20 0.22 0.23 0.25 0.27 0.28 0.28 0.30
0.08 0.07 0.06 0.05 0.04 0.04 0.04 0.03 0.02 0.02 0.02 0.03 0.03 0.04 0.05 0.05 0.05 0.05 0.04 0.04 0.05 0.07 0.06 0.06 0.07 0.10 0.13 0.11 0.09 0.10 0.11 0.12 0.14 0.17 0.21 0.25 0.27 0.28 0.27 0.27 0.28 0.29 0.31 0.35
0.08 0.07 0.06 0.06 0.06 0.05 0.06 0.06 0.04 0.04 0.04 0.04 0.04 0.05 0.06 0.07 0.07 0.07 0.08 0.09 0.09 0.10 0.09 0.09 0.10 0.14 0.17 0.13 0.13 0.13 0.15 0.16 0.16 0.17 0.20 0.24 0.27 0.28 0.28 0.29 0.30 0.31 0.31 0.33
0.06 0.07 0.07 0.08 0.08 0.08 0.07 0.07 0.07 0.07 0.07 0.08 0.08 0.08 0.08 0.09 0.10 0.10 0.10 0.11 0.12 0.13 0.12 0.13 0.15 0.17 0.16 0.16 0.17 0.18 0.20 0.22 0.24 0.25 0.26 0.27 0.29 0.31 0.32 0.34 0.36 0.39 0.38 0.36
0.05 0.06 0.08 0.09 0.09 0.09 0.09 0.08 0.08 0.08 0.09 0.10 0.11 0.10 0.10 0.10 0.10 0.09 0.09 0.10 0.12 0.14 0.14 0.15 0.16 0.17 0.18 0.20 0.22 0.23 0.23 0.24 0.26 0.28 0.30 0.32 0.34 0.36 0.39 0.41 0.42 0.46 0.46 0.43
0.05 0.06 0.07 0.09 0.10 0.10 0.10 0.10 0.10 0.09 0.10 0.11 0.10 0.10 0.10 0.12 0.13 0.13 0.12 0.12 0.13 0.15 0.18 0.21 0.23 0.24 0.26 0.27 0.27 0.27 0.29 0.30 0.30 0.31 0.33 0.36 0.38 0.40 0.42 0.46 0.49 0.52 0.53 0.52